Back to catalog

COSMOS 2251 DEB

AliveLEO
NORAD 34563·DEBRIS·🇷🇺 Russia

Launched Jun 16, 1993 from Plesetsk Cosmodrome

Loading…

Next Passes (next 24 hours)

TLE

FreshSource: Space-Track

Epoch: Sep 14, 2026, 03:10 UTC

1 34563U 93036UZ  26257.13194508  .00000968  00000-0  27158-3 0  9994
2 34563  74.0377  49.1547 0012734  76.6094  40.4506 14.47301615921801

Track COSMOS 2251 DEB in real time with AllMySat

Download on the App Store